Location: Petruro
(41.0333°N, 14.7833°E)
Time: 19:29:48
(UTC+00:00)

Alouette 2 Rocket - Visible Passes

Search period start: 19 October 2021 00:00
Search period end: 29 October 2021 00:00
Orbit: 501 x 2650 km, 79.8° (Epoch: 19 October)

Date Brightness Start Highest point End Pass type
(mag) Time Alt. Az. Time Alt. Az. Time Alt. Az.
19 Oct 6.7 00:50:10 62° NNW 00:50:10 62° NNW 01:02:06 10° N visible
19 Oct 7.3 02:47:56 25° WNW 02:49:07 26° NW 03:00:33 10° N visible
19 Oct 7.6 22:25:36 28° ENE 22:25:36 28° ENE 22:33:49 10° NNE visible
20 Oct 6.7 00:23:21 60° N 00:23:21 60° N 00:34:28 10° NNE visible
20 Oct 7.2 02:21:07 31° NW 02:21:07 31° NW 02:33:11 10° N visible
20 Oct 7.8 21:58:45 23° NE 21:58:45 23° NE 22:05:32 10° NNE visible
20 Oct 6.9 23:56:30 55° NNE 23:56:30 55° NNE 00:06:46 10° NNE visible
21 Oct 7.1 01:54:17 37° NW 01:54:17 37° NW 02:05:44 10° N visible
21 Oct 7.9 03:53:51 10° NW 03:57:30 11° NW 04:01:05 10° NNW visible
21 Oct 7.9 21:31:54 18° NE 21:31:54 18° NE 21:36:57 10° NE visible
21 Oct 7.1 23:29:40 48° NNE 23:29:40 48° NNE 23:39:02 10° NNE visible
22 Oct 7.0 01:27:26 42° NW 01:27:26 42° NW 01:38:14 10° N visible
22 Oct 7.8 03:25:11 13° NW 03:28:32 14° NW 03:35:02 10° NNW visible
22 Oct 8.1 21:05:02 13° NE 21:05:02 13° NE 21:07:46 10° NE visible
22 Oct 7.2 23:02:48 41° NE 23:02:48 41° NE 23:11:13 10° NNE visible
23 Oct 7.0 01:00:33 46° NNW 01:00:33 46° NNW 01:10:41 10° N visible
23 Oct 7.7 02:58:19 17° NW 02:59:45 17° NW 03:08:11 10° N visible
23 Oct 7.4 22:35:55 34° NE 22:35:55 34° NE 22:43:19 10° NNE visible
24 Oct 7.0 00:33:40 48° NNW 00:33:40 48° NNW 00:43:06 10° N visible
24 Oct 7.5 02:31:25 21° NW 02:31:25 21° NW 02:41:03 10° N visible
24 Oct 7.6 22:09:00 28° NE 22:09:00 28° NE 22:15:20 10° NNE visible
25 Oct 7.0 00:06:45 47° N 00:06:45 47° N 00:15:29 10° N visible
25 Oct 7.4 02:04:31 25° NW 02:04:31 25° NW 02:13:46 10° N visible
25 Oct 7.7 21:42:05 23° NE 21:42:05 23° NE 21:47:11 10° NNE visible
25 Oct 7.1 23:39:50 44° N 23:39:50 44° N 23:47:48 10° NNE visible
26 Oct 7.3 01:37:36 29° NW 01:37:36 29° NW 01:46:23 10° N visible
26 Oct 7.9 21:15:09 18° NE 21:15:09 18° NE 21:18:50 10° NNE visible
26 Oct 7.2 23:12:54 40° NNE 23:12:54 40° NNE 23:20:06 10° NNE visible
27 Oct 7.3 01:10:39 33° NNW 01:10:39 33° NNW 01:18:56 10° N visible
27 Oct 7.9 03:08:25 10° NW 03:10:40 11° NW 03:13:12 10° NNW visible
27 Oct 8.0 20:48:11 13° NE 20:48:11 13° NE 20:50:09 10° NE visible
27 Oct 7.3 22:45:57 35° NNE 22:45:57 35° NNE 22:52:18 10° NNE visible
28 Oct 7.2 00:43:42 35° NNW 00:43:42 35° NNW 00:51:24 10° N visible
28 Oct 7.8 02:41:27 13° NW 02:41:47 13° NW 02:47:44 10° NNW visible
28 Oct 7.5 22:18:59 30° NNE 22:18:59 30° NNE 22:24:27 10° NNE visible
